Regional Weather Roundup
Issued by NWS Goodland, KS

Home | Current Version | Previous Version | Graphics & Text | Print | Product List | Glossary On
Versions: 1 2 3 4 5 6 7 8 9 10 11 12 13 14 15 16 17 18 19 20 21 22 23 24 25 26 27 28 29 30 31 32 33 34 35 36 37 38 39 40 41 42 43 44 45 46 47 48 49 50
000
ASUS43 KGLD 222359
RWRGLD

GOODLAND FORECAST AREA HOURLY WEATHER ROUNDUP
NATIONAL WEATHER SERVICE GOODLAND KS
600 PM MDT MON AUG 22 2016

...OFFICIAL OBSERVATIONS...

CITY           SKY/WX    TMP DP  RH WIND       PRES   REMARKS
GOODLAND KS    MOSUNNY   84  56  38 S23G37    29.88F
HILL CITY KS   PTSUNNY   85  57  38 S16G22    29.90S
IMPERIAL NEB   MOSUNNY   86  54  33 S21G29    29.85F
MCCOOK NEB     CLOUDY    88  57  34 S18G31    29.85F
AKRON CO       MOSUNNY   83  47  28 S10       29.90S
BURLINGTON CO  MOSUNNY   83  52  34 S20G31    29.90F
LIMON CO       SUNNY     82  41  23 VRB5      29.94F
$$

...UNOFFICIAL OBSERVATIONS...

CITY           SKY/WX    TMP DP  RH WIND       PRES   REMARKS
COLBY KS       SUNNY     86  61  42 SE18G29   29.91S
LENORA KS        N/A     86  32  14 MISG        N/A
NORTON KS      SUNNY     88  48  25 S22G29    29.88R
SHARON SPRINGS   N/A     76  65  70 SE10G25     N/A
TRENTON NEB      N/A     89  32  13 MISG        N/A
KIT CARSON CO    N/A     88  56  33 MISG        N/A
YUMA CO          N/A     84  57  39 S5G14       N/A
$$




USA.gov is the U.S. government's official web portal to all federal, state and local government web resources and services.